COSMOS 2014

Satellite information

Favourite Embed

Satellite Type and Status

PAYLOADIN ORBIT

Key statistics

Satellite COSMOS 2014 at a glance.

Uptime

13419

Days in orbit

Revolutions

≈ 12.5

Per day

Orbit

LEO

Low Earth Orbit

Inclination

74.0

Latest

Satellite identification and parameters

Extended collection of information and parameters for COSMOS 2014.

Object identification

Identified? True

Debris? False

Object name: COSMOS 2014

International designator: 1989-025G

Object number (NORAD): 19908

Object ID (CCSDS): 19908

Country: COMMONWEALTH OF INDEPENDENT STATES (CIS)

Current information (Y/N): Y

RCS size: MEDIUM

Orbital parameters

Period: 115.543 minutes

Inclination: 74.0111 deg

SMA: 7858.201 km

Apoapsis: 1489.344 km

Periapsis: 1470.789 km

RAAN: 308.3155 deg

Eccentricy: 0.00118059

Argument of periapsis: 52.051 deg

Mean anomaly: 4.3345 deg

Mean motion: 12.46286914 rev/day

Mean motion (dot): -0.00000025 rev/day2

B* drag term: -0.000065147144 1/REarth

Two-line elements (TLE)

Creation date: Dec. 19, 2025, 2:08 a.m.

Reference frame: TEME

Reference center: EARTH

Epoch: Dec. 18, 2025, 9:54 p.m. UTC

TLE line 0: 0 COSMOS 2014

TLE line 1: 1 19908U 89025G 25352.91317826 -.00000025 00000-0 -65147-4 0 9991

TLE line 2: 2 19908 74.0111 308.3155 0011806 52.0510 4.3345 12.46286914671384

Live tracking on map

Real-time ground track for satellite COSMOS 2014.

In-orbit conjunctions

A list of the most updated potential collisions computed for object COSMOS 2014.

Target Orbit TCA Probability of collision Miss distance Type
THORAD DELTA 1 DEB SSO 2025-03-28 00:13:19 0.0002886677 895.0 (m) DEBRIS
COSMOS 1823 DEB LEO 2024-11-19 00:18:20 0.0002566656 322.0 (m) DEBRIS
COSMOS 1156 LEO 2024-11-18 00:16:32 0.001530035 97.0 (m) PAYLOAD
DELTA 1 DEB SSO 2024-07-08 01:55:39 0.0001719136 87.0 (m) DEBRIS

Associated space launch

Military communications satellites

COSMOS 2014 was lifted into orbit during the mission ‘Kosmos-3M | Strela-1M 337-344’, on board a Kosmos-3M space rocket.

The launch took place on March 24, 1989, 1:38 p.m. from 132/2.

For more information about the launch, click the button.

Launch to space Kosmos-3M | Strela-1M 337-344
Kosmos-3M | Strela-1M 337-344

Agency: N/A

Status: Launch Successful

Launch date: March 24, 1989, 1:38 p.m. UTC

Rocket: Kosmos-3M

Launch pad: 132/2

Location: Plesetsk Cosmodrome, Russian Federation

...

Latest news about this satellite

There are no fresh news available about this satellite. Check back as we update our databases every day.


Newsletter sign-up

Weekly statistics, charts and insights to help you stay on top of the space industry.